Location: ???????????
(54.5822°N, 39.1075°E)
Time: 11:46:19
(UTC+00:00)

Cosmos 1980 Rocket - Pass Details

Date: 19 May 2025
Orbit: 829 x 847 km, 71.0° (Epoch: 13 June)

Event Time Altitude Azimuth Distance (km) Brightness Sun altitude
Rises 19:02:41 0° 326° (NW) 3,385 7.7 -9.9°
Reaches altitude 10° 19:05:08 10° 325° (NW) 2,448 6.3 -10.1°
Maximum altitude 19:10:44 76° 241° (WSW) 863 2.3 -10.5°
Enters shadow 19:15:34 14° 157° (SSE) 2,159 3.7 -10.8°
